Weather History for Fayetteville, AR

Change the Weather History Date:

Sunday, January 6, 2013

  Actual Average Record
Temperature  
Mean Temperature 33 °F 35 °F  
Max Temperature 46 °F 46 °F 72 °F (2008)
Min Temperature 19 °F 25 °F -3 °F (1970)
Degree Days  
Heating Degree Days 32 30  
Month to date heating degree days 204 180  
Since 1 July heating degree days 1722 1863  
Moisture  
Dew Point 23 °F    
Average Humidity 69    
Maximum Humidity 100    
Minimum Humidity 37    
Precipitation  
Precipitation 0.00 in 0.10 in 0.44 in (1998)
Month to date precipitation 0.01 0.57  
Year to date precipitation 0.01 0.57  
Sea Level Pressure  
Sea Level Pressure 30.35 in    
Wind  
Wind Speed 4 mph (WNW)    
Max Wind Speed 12 mph    
Max Gust Speed 15 mph    
Visibility 10 miles    
Events      
T = Trace of Precipitation, MM = Missing Value Source: NWS Daily Summary

Daily Weather History Graph

Daily Weather History Graph

Search for Another Location

Airport:

Trip Planner

Search our weather history database for the weather conditions in past years. The results will help you decide how hot, cold, wet, or windy it might be!

Date:

Astronomy

Jan. 06, 2013 Rise Set
Actual Time 7:27 AM CST 5:17 PM CST
Civil Twilight 6:59 AM CST 5:46 PM CST
Nautical Twilight 6:27 AM CST 6:17 PM CST
Astronomical Twilight 5:56 AM CST 6:49 PM CST
Moon 1:47 AM CST (1/6) 12:42 PM CST (1/6)
Length of Visible Light 10h 46m
Length of Day
9h 50m
Waning Crescent, 33% of the Moon is Illuminated
Jan 6
Waning Crescent
Jan 11
New
Jan 18
First Quarter
Jan 26
Full
Feb 3
Last Quarter

Hourly Weather History & Observations

Time (CST) Temp. Windchill Dew Point Humidity Pressure Visibility Wind Dir Wind Speed Gust Speed Precip Events Conditions
12:53 AM 26.1 °F 18.4 °F 25.0 °F 96% 30.27 in 8.0 mi SSW 6.9 mph - N/A   Clear
1:53 AM 32.0 °F 24.8 °F 28.9 °F 88% 30.28 in 10.0 mi SSW 8.1 mph - N/A   Clear
2:53 AM 28.9 °F 25.2 °F 27.0 °F 92% 30.28 in 9.0 mi South 3.5 mph - N/A   Clear
3:53 AM 32.0 °F 27.5 °F 30.0 °F 92% 30.28 in 10.0 mi West 4.6 mph - N/A   Clear
4:53 AM 24.1 °F 19.7 °F 23.0 °F 96% 30.30 in 6.0 mi SW 3.5 mph - N/A   Clear
5:53 AM 25.0 °F 18.1 °F 24.1 °F 96% 30.31 in 6.0 mi West 5.8 mph - N/A   Clear
6:53 AM 28.0 °F 22.8 °F 24.1 °F 85% 30.33 in 10.0 mi NW 4.6 mph - N/A   Clear
7:53 AM 27.0 °F 20.5 °F 21.9 °F 81% 30.36 in 10.0 mi NW 5.8 mph - N/A   Clear
8:53 AM 30.9 °F 26.2 °F 24.1 °F 76% 30.37 in 10.0 mi NNW 4.6 mph - N/A   Clear
9:53 AM 33.8 °F 27.0 °F 24.8 °F 70% 30.36 in 10.0 mi NW 8.1 mph - N/A   Clear
10:53 AM 36.0 °F 29.6 °F 24.1 °F 62% 30.39 in 10.0 mi NNW 8.1 mph - N/A   Clear
11:53 AM 39.0 °F 36.8 °F 24.1 °F 55% 30.38 in 10.0 mi WNW 3.5 mph - N/A   Clear
12:53 PM 43.0 °F 37.7 °F 24.1 °F 47% 30.35 in 10.0 mi NNW 9.2 mph - N/A   Clear
1:53 PM 45.0 °F 41.8 °F 24.1 °F 44% 30.34 in 10.0 mi NW 5.8 mph - N/A   Clear
2:53 PM 46.0 °F 42.5 °F 21.9 °F 39% 30.34 in 10.0 mi North 6.9 mph - N/A   Clear
3:53 PM 45.0 °F 41.8 °F 21.9 °F 40% 30.35 in 10.0 mi North 5.8 mph - N/A   Clear
4:53 PM 42.1 °F 40.2 °F 19.9 °F 41% 30.36 in 10.0 mi North 3.5 mph - N/A   Clear
5:53 PM 30.0 °F - 21.9 °F 72% 30.36 in 10.0 mi Calm Calm - N/A   Clear
6:53 PM 28.0 °F - 21.0 °F 75% 30.38 in 10.0 mi Calm Calm - N/A   Clear
7:53 PM 25.0 °F 20.7 °F 21.0 °F 85% 30.39 in 10.0 mi SSW 3.5 mph - N/A   Clear
8:53 PM 25.0 °F - 21.0 °F 85% 30.39 in 10.0 mi Calm Calm - N/A   Clear
9:53 PM 24.1 °F - 19.9 °F 84% 30.40 in 10.0 mi Calm Calm - N/A   Clear
10:53 PM 21.0 °F - 19.0 °F 92% 30.39 in 10.0 mi Calm Calm - N/A   Clear
11:53 PM 21.0 °F - 18.0 °F 88% 30.39 in 10.0 mi Calm Calm - N/A   Clear